Change the Weather History Date:

Friday, December 7, 2012

  Actual Average Record
Temperature  
Mean Temperature 63 °F 47 °F  
Max Temperature 70 °F 56 °F 82 °F (1951)
Min Temperature 55 °F 37 °F 15 °F (1950)
Degree Days  
Heating Degree Days 2 19  
Month to date heating degree days 17 125  
Since 1 July heating degree days 556 587  
Cooling Degree Days 0 0  
Month to date cooling degree days 5 0  
Year to date cooling degree days 2451 2186  
Growing Degree Days 12 (Base 50)    
Moisture  
Dew Point 57 °F    
Average Humidity 84    
Maximum Humidity 100    
Minimum Humidity 68    
Precipitation  
Precipitation 0.00 in 0.21 in 2.26 in (1936)
Month to date precipitation 0.53 1.43  
Year to date precipitation 36.78 48.45  
Sea Level Pressure  
Sea Level Pressure 29.93 in    
Wind  
Wind Speed 5 mph (SSW)    
Max Wind Speed 15 mph    
Max Gust Speed 17 mph    
Visibility 5 miles    
Events Fog    
T = Trace of Precipitation, MM = Missing Value Source: NWS Daily Summary

Daily Weather History Graph

Daily Weather History Graph

Search for Another Location

Airport or City:

Trip Planner

Search our weather history database for the weather conditions in past years. The results will help you decide how hot, cold, wet, or windy it might be!

Date:

Astronomy

Dec. 07, 2012 Rise Set
Actual Time 6:55 AM CST 4:55 PM CST
Civil Twilight 6:27 AM CST 5:23 PM CST
Nautical Twilight 5:57 AM CST 5:54 PM CST
Astronomical Twilight 5:26 AM CST 6:24 PM CST
Moon 12:31 AM CST (12/7) 12:38 PM CST (12/7)
Length of Visible Light 10h 55m
Length of Day
10h 00m
Last Quarter, 38% of the Moon is Illuminated
Dec 7
Last Quarter
Dec 13
New
Dec 19
First Quarter
Dec 28
Full
Jan 4
Last Quarter

Hourly Weather History & Observations

Time (CST) Temp. Dew Point Humidity Pressure Visibility Wind Dir Wind Speed Gust Speed Precip Events Conditions
12:04 AM 57.2 °F 57.2 °F 100% 29.92 in 1.8 mi Calm Calm - N/A   Mostly Cloudy
12:18 AM 59.0 °F 57.2 °F 94% 29.93 in 3.0 mi Calm Calm - N/A   Overcast
12:53 AM 60.1 °F 59.0 °F 96% 29.95 in 6.0 mi Calm Calm - N/A   Mostly Cloudy
1:43 AM 57.2 °F 57.2 °F 100% 29.93 in 1.8 mi SSE 4.6 mph - N/A   Mostly Cloudy
1:53 AM 57.9 °F 57.9 °F 100% 29.95 in 3.0 mi Calm Calm - N/A   Mostly Cloudy
2:53 AM 57.0 °F 57.0 °F 100% 29.94 in 4.0 mi South 3.5 mph - N/A   Scattered Clouds
3:14 AM 55.4 °F 55.4 °F 100% 29.92 in 1.8 mi Calm Calm - N/A   Scattered Clouds
3:25 AM 55.4 °F 55.4 °F 100% 29.91 in 0.8 mi Calm Calm - N/A   Mostly Cloudy
3:38 AM 55.4 °F 55.4 °F 100% 29.91 in 0.8 mi Calm Calm - N/A   Overcast
3:44 AM 55.4 °F 55.4 °F 100% 29.91 in 2.0 mi Calm Calm - N/A   Overcast
3:53 AM 57.0 °F 55.9 °F 96% 29.94 in 3.0 mi Calm Calm - N/A   Mostly Cloudy
3:57 AM 55.4 °F 55.4 °F 100% 29.91 in 1.8 mi Calm Calm - N/A   Mostly Cloudy
4:07 AM 55.4 °F 55.4 °F 100% 29.92 in 0.8 mi Calm Calm - N/A   Mostly Cloudy
4:12 AM 55.4 °F 55.4 °F 100% 29.92 in 2.0 mi Calm Calm - N/A   Mostly Cloudy
4:21 AM 57.2 °F 57.2 °F 100% 29.92 in 1.2 mi Calm Calm - N/A   Overcast
4:40 AM 57.2 °F 57.2 °F 100% 29.92 in 3.0 mi Calm Calm - N/A   Overcast
4:53 AM 57.9 °F 57.0 °F 97% 29.94 in 3.0 mi Calm Calm - N/A   Overcast
5:20 AM 57.2 °F 57.2 °F 100% 29.93 in 4.0 mi Calm Calm - N/A   Overcast
5:29 AM 57.2 °F 57.2 °F 100% 29.93 in 2.5 mi SE 3.5 mph - N/A   Overcast
5:36 AM 57.2 °F 57.2 °F 100% 29.93 in 0.8 mi SE 3.5 mph - N/A   Overcast
5:53 AM 57.9 °F 57.9 °F 100% 29.96 in 1.8 mi Calm Calm - N/A   Overcast
5:58 AM 57.2 °F 57.2 °F 100% 29.94 in 3.0 mi Calm Calm - N/A   Overcast
6:19 AM 57.2 °F 57.2 °F 100% 29.94 in 1.8 mi Calm Calm - N/A   Mostly Cloudy
6:22 AM 57.2 °F 57.2 °F 100% 29.94 in 0.8 mi Calm Calm - N/A   Mostly Cloudy
6:30 AM 57.2 °F 57.2 °F 100% 29.94 in 0.5 mi Calm Calm - N/A Fog Fog
6:48 AM 55.4 °F 55.4 °F 100% 29.94 in 0.8 mi Calm Calm - N/A   Overcast
6:53 AM 55.9 °F 55.9 °F 100% 29.97 in 1.5 mi SSE 3.5 mph - N/A   Overcast
6:59 AM 57.2 °F 55.4 °F 94% 29.95 in 3.0 mi SSE 3.5 mph - N/A   Mostly Cloudy
7:05 AM 57.2 °F 55.4 °F 94% 29.95 in 1.8 mi SSE 4.6 mph - N/A   Mostly Cloudy
7:16 AM 59.0 °F 57.2 °F 94% 29.95 in 3.0 mi South 5.8 mph - N/A   Mostly Cloudy
7:33 AM 57.2 °F 57.2 °F 100% 29.95 in 2.5 mi SSW 3.5 mph - N/A   Mostly Cloudy
7:41 AM 57.2 °F 57.2 °F 100% 29.95 in 3.0 mi SSW 3.5 mph - N/A   Overcast
7:53 AM 61.0 °F 60.1 °F 97% 29.97 in 4.0 mi SW 3.5 mph - N/A   Overcast
8:13 AM 62.6 °F 60.8 °F 94% 29.95 in 5.0 mi SSW 4.6 mph - N/A   Mostly Cloudy
8:51 AM 62.6 °F 60.8 °F 94% 29.96 in 5.0 mi South 3.5 mph - N/A   Overcast
8:53 AM 62.1 °F 61.0 °F 96% 29.98 in 5.0 mi South 3.5 mph - N/A   Overcast
9:13 AM 62.6 °F 60.8 °F 94% 29.96 in 5.0 mi Calm Calm - N/A   Overcast
9:41 AM 62.6 °F 60.8 °F 94% 29.97 in 8.0 mi West 4.6 mph - N/A   Overcast
9:53 AM 64.0 °F 60.1 °F 87% 29.99 in 8.0 mi West 4.6 mph - N/A   Overcast
10:01 AM 64.4 °F 60.8 °F 88% 29.97 in 8.0 mi West 4.6 mph - N/A   Mostly Cloudy
10:12 AM 64.4 °F 60.8 °F 88% 29.97 in 9.0 mi West 3.5 mph - N/A   Mostly Cloudy
10:53 AM 66.0 °F 59.0 °F 78% 29.98 in 10.0 mi SW 10.4 mph - N/A   Partly Cloudy
11:53 AM 68.0 °F 59.0 °F 73% 29.93 in 10.0 mi SW 11.5 mph - N/A   Partly Cloudy
12:53 PM 69.1 °F 59.0 °F 70% 29.91 in 10.0 mi SW 12.7 mph - N/A   Mostly Cloudy
1:53 PM 68.0 °F 57.9 °F 70% 29.88 in 10.0 mi SSW 9.2 mph - N/A   Scattered Clouds
2:45 PM 69.8 °F 57.2 °F 64% 29.85 in 10.0 mi SSW 11.5 mph - N/A   Mostly Cloudy
2:53 PM 68.0 °F 57.0 °F 68% 29.88 in 10.0 mi South 10.4 mph - N/A   Scattered Clouds
3:05 PM 69.8 °F 57.2 °F 64% 29.86 in 10.0 mi SW 8.1 mph - N/A   Mostly Cloudy
3:18 PM 68.0 °F 57.2 °F 68% 29.86 in 10.0 mi SW 9.2 mph - N/A   Scattered Clouds
3:53 PM 66.9 °F 57.9 °F 73% 29.88 in 10.0 mi SW 8.1 mph - N/A   Clear
4:53 PM 63.0 °F 57.0 °F 81% 29.89 in 10.0 mi SW 4.6 mph - N/A   Clear
5:53 PM 60.1 °F 55.0 °F 83% 29.90 in 10.0 mi SSW 5.8 mph - N/A   Clear
6:53 PM 59.0 °F 55.4 °F 88% 29.89 in 10.0 mi SSE 3.5 mph - N/A   Clear
7:53 PM 57.9 °F 55.0 °F 90% 29.92 in 10.0 mi South 4.6 mph - N/A   Clear
8:53 PM 57.9 °F 55.0 °F 90% 29.92 in 10.0 mi SSE 3.5 mph - N/A   Clear
9:53 PM 55.9 °F 54.0 °F 93% 29.92 in 8.0 mi SE 8.1 mph - N/A   Clear
10:53 PM 57.0 °F 54.0 °F 89% 29.92 in 9.0 mi SE 3.5 mph - N/A   Clear
11:53 PM 57.0 °F 54.0 °F 89% 29.92 in 9.0 mi Calm Calm - N/A   Clear